Location: Hollis Hills
(40.7325°N, 73.7542°W)
Time: 21:13:27
(UTC+00:00)

Daily predictions for brighter satellites

Satellite Brightness Start Highest point End
(mag) Time Altitude Azimuth Time Altitude Azimuth Time Altitude Azimuth
Cosmos 1733 Rocket 3.2 21:51:08 10° N 21:55:32 81° W 21:59:57 10° S
STARLINK-43 4.2 21:52:31 10° SSW 21:55:57 37° SE 21:59:24 10° ENE
NOSS 7 (D) 4.4 21:54:33 10° NW 21:57:39 82° WSW 22:01:12 10° SSE
Cosmos 2237 Rocket 2.6 21:52:00 10° SSW 21:57:40 71° WNW 22:03:22 10° NNE
CZ-4 R/B 3.2 21:59:33 10° ENE 22:00:14 10° ENE 22:00:56 10° NE
CZ-4B R/B 4.0 21:58:19 10° NNW 22:00:58 21° WNW 22:03:34 10° WSW
Cosmos 921 Rocket 3.9 21:59:28 10° N 22:03:13 28° ENE 22:06:59 10° SE
Cosmos 614 Rocket 4.4 21:58:48 10° S 22:03:32 40° ESE 22:08:15 10° NE
Cosmos 2333 Rocket 4.1 21:59:57 10° WSW 22:04:39 25° NW 22:09:23 10° N
COBE Rocket 3.9 22:00:53 10° NNE 22:05:29 56° E 22:10:08 10° S
OAO 3 Rocket 4.2 22:01:12 10° WSW 22:05:35 41° S 22:10:01 10° ESE
Cosmos 2219 Rocket 4.1 22:01:16 10° WSW 22:05:48 25° NW 22:10:23 10° N
Aureole 1 Rocket 2.1 22:04:00 10° SSW 22:06:56 78° ESE 22:10:10 10° NNE
Cosmos 1943 Rocket 3.6 22:07:33 10° N 22:11:12 17° NE 22:14:49 10° E
AQUARIUS 4.2 22:08:24 10° SSE 22:12:49 58° ENE 22:17:15 10° N
Cosmos 1174 4.2 22:08:55 10° SSW 22:14:11 79° ESE 22:18:21 10° NNE
H-2A R/B 2.6 22:11:34 10° SSE 22:15:11 60° ENE 22:18:50 10° N
OAO 2 Rocket 4.4 22:11:44 10° WSW 22:16:22 40° S 22:21:04 10° ESE
Cosmos 1441 Rocket 3.6 22:13:17 10° N 22:16:52 40° ENE 22:20:24 10° SSE
Nadezhda 4 Rocket 4.3 22:12:20 10° SSW 22:18:39 73° W 22:24:59 10° N
Cosmos 1975 4.2 22:17:26 10° NNE 22:20:16 18° ENE 22:23:05 10° ESE
USA 215 3.7 22:14:32 10° NE 22:20:54 56° NW 22:27:15 10° WSW
Shenzhou-11 Module 2.7 22:22:03 10° W 22:24:43 45° SSW 22:27:20 10° SE
SMAP 3.0 22:20:13 10° SSE 22:24:52 87° ENE 22:29:33 10° NNW
Genesis I 3.0 22:23:15 10° NNW 22:27:08 73° NE 22:30:57 10° SE
Cosmos 1140 Rocket 3.8 22:23:15 10° S 22:28:04 44° ESE 22:32:57 10° NNE
Abrixas rocket 2.7 22:25:24 10° SW 22:28:15 40° SE 22:30:01 19° E
Cosmos 1782 Rocket 3.7 22:25:58 10° N 22:30:12 48° E 22:34:23 10° SSE
CZ-4C R/B 3.5 22:27:07 10° SSE 22:30:13 17° ESE 22:31:50 15° E
Envisat 3.1 22:26:14 10° SSE 22:31:08 52° ENE 22:36:04 10° N
SKYMED 2 4.2 22:27:52 10° NNE 22:31:52 35° E 22:35:50 10° SSE
Cosmos 1666 2.7 22:29:11 10° N 22:32:56 79° W 22:36:39 10° S
Cosmos 1703 Rocket 3.7 22:34:00 10° S 22:38:28 83° W 22:42:58 10° N
Cosmos 2026 Rocket 3.9 22:33:59 10° S 22:40:00 75° E 22:46:04 10° N
Cosmos 407 Rocket 3.5 22:34:58 10° SSW 22:40:10 86° ESE 22:45:27 10° NNE
Okean 2 Rocket 3.9 22:38:35 10° NNE 22:42:31 29° ENE 22:46:28 10° SE
Cosmos 2221 Rocket 4.1 22:39:13 10° SSE 22:43:19 37° E 22:46:40 14° NNE
Cosmos 2297 3.6 22:37:40 10° NNW 22:43:23 79° ENE 22:49:02 10° SSE
Sich 1 Rocket 3.6 22:42:14 10° N 22:46:34 56° E 22:50:52 10° SSE
YAOGAN 6 2.8 22:43:51 10° SSE 22:47:14 44° ENE 22:50:41 10° N
NOAA 12 4.1 22:42:01 10° SSE 22:47:19 87° ENE 22:52:37 10° NNW
STARLINK-48 3.9 22:44:49 10° SSW 22:48:31 44° SE 22:50:06 28° E
USA 267 3.2 22:46:53 10° SE 22:53:25 80° NE 22:59:59 10° NW
CZ-4 R/B 4.4 22:59:18 10° SSE 23:03:24 63° ENE 23:07:32 10° N
Cosmos 1417 Rocket 4.4 22:58:33 10° N 23:04:39 62° E 23:10:44 10° SSE
USA 229 DEB 4.4 23:00:37 10° NNW 23:07:10 35° NE 23:09:46 28° E
USA 229 4.4 23:00:44 10° NNW 23:07:16 35° NE 23:09:47 28° ENE
Cosmos 1743 2.9 23:04:29 10° NNW 23:08:21 74° W 23:12:13 10° S
Meteor 2-9 Rocket 4.2 23:04:35 10° N 23:10:23 60° ENE 23:16:03 10° SSE
NOAA 11 4.4 23:05:51 10° SE 23:10:58 44° ENE 23:16:08 10° N
Okean 1-7 4.3 23:07:32 10° SSW 23:11:38 41° WNW 23:15:48 10° N
Cosmos 1943 3.6 23:10:05 10° S 23:15:16 39° ESE 23:16:07 37° E
Okean-O 3.7 23:13:54 10° S 23:18:09 45° W 23:22:25 10° NNW
SL-4 R/B 3.7 23:15:26 10° NW 23:17:48 20° N 23:17:48 20° N
Delta 2 Rocket 4.4 23:15:01 10° WSW 23:19:52 45° S 23:21:18 34° SE
Okean 1 4.4 23:16:06 10° SSW 23:19:54 44° W 23:23:44 10° N
COSMO-SKYMED 1 2.9 23:15:59 12° N 23:19:56 67° WNW 23:24:14 10° SSW
Cosmos 1867 3.5 23:15:43 10° NNW 23:21:12 89° ENE 23:26:38 10° SSE
YAOGAN 1 2.4 23:16:58 10° SSE 23:21:15 70° ENE 23:25:34 10° N
Cosmos 1241 Rocket 4.4 23:15:20 10° SSW 23:21:44 86° WNW 23:25:33 26° NNE
Lacrosse 5 1.9 23:21:34 10° SSW 23:26:36 64° SE 23:27:27 54° E
Cosmos 2369 Rocket 2.2 23:24:49 10° NNW 23:30:22 55° ENE 23:31:27 48° ESE
Cosmos 1655 Rocket 3.9 23:24:03 10° S 23:30:23 88° E 23:36:41 10° N
SL-16 R/B 3.7 23:28:42 10° WSW 23:33:45 32° WNW 23:38:48 10° N
CZ-4 R/B 1.8 23:30:55 10° S 23:34:45 59° W 23:38:34 10° NNW
Meteor 2-13 Rocket 4.4 23:31:47 10° S 23:37:50 82° W 23:43:58 10° N
CZ-3B R/B 3.8 23:34:37 10° SSW 23:38:06 17° SSE 23:38:54 17° SE
Cosmos 1603 3.6 23:34:56 10° SSW 23:40:39 87° ESE 23:42:25 47° NNE
DMSP B5D1-3 4.3 23:41:51 58° NNE 23:42:51 81° ESE 23:47:57 10° S
Okean 3 4.1 23:42:14 10° SSW 23:46:19 53° W 23:47:24 40° NNW
IRIDIUM 104 4.4 23:47:19 10° S 23:52:32 77° W 23:54:45 35° N
